STARLINK-34015, 63854

Orbit data source: Space-Track

STARLINK-34015, 63854 is a payload satellite owned by SpaceX/Seattle (US) in LEO that was launched on Wed, 07 May 2025 UTC via an FALCON 9 launch vehicle from the Air Force Eastern Test Range (AFETR). Payload-class satellites include a variety of spacecraft equipped with specific instruments for various scientific and technological missions. These include communications satellites like Starlink; space stations such as the ISS; scientific satellites like the Hubble; Earth observation satellites from companies like Planet Labs, Umbra, and HawkEye 360; GPS; miniature CubeSats for education and research; and military/defense satellites.

Loading next visibility...
Identifier
63854, 2025-093U
Orbit
LEO
Country
Flag of USUS
Related business
Manufacturer
SpaceX/Seattle
Mission
Operational Commercial Communications
Bus & Motor
STARLINK V2MO, Unknown motor
Mass
575 kg wet, ~530 kg dry
Launch date (UTC)
2025-05-07 (1 year ago)
Launch vehicle
FALCON 9
Launch site
Air Force Eastern Test Range (AFETR)
Object type
Payload
Rocket body
Debris
Shape & HBR
Box + 2 Pan, 17.7 m
Radar Cross Section
36.964 m², Large (>1 m²)

Expand to show TLE details & history
Last TLE update: 19 hours ago

TLE from 19 hours ago
0 STARLINK-34015
1 63854U 25093U   26171.12071916  .00018670  00000-0  68589-3 0  9990
2 63854  43.0004 219.7500 0002471 261.0062  99.0510 15.27596098 63470
Epoch: 2026-06-20T02:53Z
TLE epoch observation values (Epoch: 2026-06-20T02:53:50.135Z)
Latitude
-0.00002°
Longitude
-92.04881°
Altitude
483.043 km
Speed
7.626 km/s
True Right ascension
14h 38m 59s
True Declination
0° 00' 00"
Sunlit
Object was in full shadow at epoch
Visualization orbit readout
Latitude
Unknown
Longitude
Unknown
Altitude
Unknown
Speed
Unknown
Apparent Right ascension
Unknown
Apparent Declination
Unknown
Sunlit
N/A
Visualization observer readout
Local Sidereal Time
08:42:18
Azimuth
Unknown
Elevation
Unknown
Doppler factor
Unknown
Orbital elements
Apogee altitude
486.642 km
Perigee altitude
483.25 km
Semi-major axis
6,863.083 km
Eccentricity
0.00025
Inclination
43.0004°
RAAN
219.75°
Arg. of periapsis
261.0062°
True anomaly
99.07896°
Mean anomaly
99.051°
Eccentric anomaly
99.06498°
Mean motion
3.81737 °/min
Orbital period
94.31 mins
BSTAR
0.00068589
Loading maneuver chart data...
Computing Atmospheric mass density...
Loading historical data...
Loading historical data...
Loading historical data...
Loading historical data...
Loading historical data...
Loading historical data...
Loading historical data...

Documentation

Showing up to 5 results
|